Simultaneous Nadir Overpasses (SNOs) Predictions

Prediction of SNOs between METOP-C and LANDSAT-8 Satellite Orbit:

Table of predicted SNOs for the next 14.0 days since TLE Epoch: 1/4/2020
Index Date (METOP-C) Time (METOP-C) Lat,Lon (METOP-C) SZA (METOP-C ) Date (LANDSAT-8) Time (LANDSAT-8) Lat,Lon (LANDSAT-8) SZA (LANDSAT-8 ) Distance(km) Time Diff (sec)
1 01/04/2020 08:02:17 81.08, 98.56 105.59 01/04/2020 08:02:33 81.08, 98.50 105.59 0.97 16
2 01/04/2020 08:52:56 -81.10, -93.62 74.36 01/04/2020 08:51:59 -81.10, -93.53 74.37 1.58 57
3 01/07/2020 03:36:07 81.06, 164.57 105.18 01/07/2020 03:36:48 81.06, 164.69 105.21 2.03 41
4 01/07/2020 04:26:45 -81.09, -27.15 74.71 01/07/2020 04:26:14 -81.08, -27.33 74.75 3.07 31
5 01/09/2020 23:09:55 81.07,-128.67 104.81 01/09/2020 23:11:02 81.07,-128.78 104.82 1.85 67
6 01/10/2020 00:00:34 -81.09, 39.31 75.13 01/10/2020 00:00:28 -81.09, 39.23 75.13 1.38 6
7 01/12/2020 19:34:23 -81.07, 105.40 75.64 01/12/2020 19:34:42 -81.08, 105.42 75.63 0.48 19
8 01/12/2020 20:25:01 81.10, -86.60 104.44 01/12/2020 20:24:07 81.10, -86.59 104.42 0.29 54
9 01/15/2020 15:08:13 -81.06, 171.50 76.20 01/15/2020 15:08:57 -81.06, 171.60 76.17 1.87 44




NCC Satellite Simultaneous Nadir Overpasses (SNOs) Prediction Service
